Location: Newark
(35.8967°N, 14.4625°E)
Time: 18:40:28
(UTC+00:00)

Envisat - Pass Details

Date: 29 October 2019
Orbit: 764 x 766 km, 98.1° (Epoch: 21 November)

Event Time Altitude Azimuth Distance (km) Brightness Sun altitude
Rises 16:52:20 0° 158° (SSE) 3,218 6.1 -9.2°
Reaches altitude 10° 16:54:39 10° 155° (SSE) 2,295 5.3 -9.6°
Maximum altitude 16:59:38 63° 75° (ENE) 852 3.0 -10.6°
Drops below altitude 10° 17:04:39 10° 355° (N) 2,309 5.5 -11.6°
Sets 17:06:59 0° 352° (N) 3,238 6.3 -12.1°
